Location: Brea Chem
(33.9170°N, 117.8692°W)
Time: 08:13:35
(UTC+00:00)

Daily predictions for brighter satellites

Satellite Brightness Start Highest point End
(mag) Time Altitude Azimuth Time Altitude Azimuth Time Altitude Azimuth
IDEFIX/ARIANE 42P 3.0 12:01:31 10° N 12:05:41 44° NW 12:05:41 44° NW
Cosmos 1766 3.4 12:08:49 64° SSE 12:08:49 64° SSE 12:12:11 10° S
Cosmos 1844 Rocket 2.5 12:04:12 10° NNW 12:09:49 88° WSW 12:15:22 10° SSE
GPS 2-05 Rocket1 4.3 12:11:19 28° E 12:11:19 28° E 12:12:50 10° E
Cosmos 2333 Rocket 2.1 12:09:31 41° SW 12:11:30 70° WNW 12:17:11 10° NNE
COSMOS 2441 4.3 12:14:46 10° N 12:19:37 62° WNW 12:22:37 23° SSW
GENESIS II 4.1 12:20:29 60° SW 12:21:08 78° WNW 12:25:11 10° NNE
Cosmos 2278 Rocket 4.3 12:17:32 10° N 12:22:13 26° ENE 12:26:54 10° ESE
Cosmos 1805 3.3 12:23:00 54° SW 12:23:00 54° SW 12:26:21 10° S
Cosmos 1844 3.6 12:19:36 10° NNW 12:25:25 83° WSW 12:31:10 10° SSE
Meteor 1-31 Rocket 2.6 12:23:53 10° NNE 12:27:42 90° WSW 12:31:29 10° SSW
Cosmos 2251 Rocket 4.4 12:32:25 28° WNW 12:32:25 28° WNW 12:36:56 10° N
CZ-2C R/B 2.5 12:30:47 10° N 12:35:55 63° WNW 12:41:00 10° SSW
Cosmos 1842 3.7 12:36:10 38° W 12:36:26 38° W 12:40:09 10° N
Cosmos 1470 3.9 12:33:30 10° N 12:37:17 45° E 12:41:01 10° SSE
PAYLOAD A 4.1 12:32:48 10° N 12:37:24 46° WNW 12:42:08 10° SW
COSMOS 2455 3.9 12:37:04 23° WNW 12:37:54 24° NW 12:42:43 10° N
Cosmos 1992 Rocket 3.9 12:33:48 10° NNW 12:39:00 76° WSW 12:44:10 10° S
Cosmos 1707 3.3 12:38:02 10° S 12:41:52 60° E 12:45:44 10° NNE
COSMO-SKYMED 1 4.2 12:40:43 10° SE 12:44:42 37° ENE 12:48:42 10° N
Cosmos 2184 Rocket 3.9 12:39:05 10° S 12:45:15 80° W 12:51:30 10° N
Cosmos 1484 Rocket 3.3 12:42:15 10° NNE 12:45:59 58° E 12:49:45 10° S
CZ-4B R/B 2.9 12:42:04 10° N 12:46:03 53° WNW 12:49:47 10° SSW
Cosmos 614 Rocket 4.0 12:43:13 10° SSW 12:48:27 86° ESE 12:53:41 10° NNE
Cosmos 1733 3.4 12:46:02 10° NNW 12:49:44 46° W 12:53:24 10° SSW
Cosmos 2219 Rocket 3.0 12:52:32 18° WSW 12:55:31 29° WNW 13:00:19 10° N
Meteor PRIRODA 3.7 12:53:25 10° N 12:57:05 57° WNW 13:00:44 10° SSW
Cosmos 2237 Rocket 2.1 12:52:34 10° SSW 12:58:13 76° WNW 13:03:55 10° NNE
Okean O Rocket 2.8 12:55:04 10° NNE 12:59:20 47° E 13:03:31 10° S
NOSS 3 (A) 4.3 12:59:02 16° SW 13:01:00 55° WNW 13:03:41 10° NNE
COSMOS 2428 3.7 12:59:19 15° WSW 13:02:40 25° WNW 13:07:19 10° N
Helios 1A Rocket 3.4 12:59:22 10° NNE 13:03:30 64° ESE 13:07:36 10° S
NOSS 3-4 (A) 3.4 12:59:24 10° SW 13:05:20 67° WNW 13:11:32 10° NNE
NOSS 3-4 (C) 3.4 12:59:28 10° SW 13:05:26 68° WNW 13:11:38 10° NNE
USA 234 3.9 13:00:26 10° S 13:06:17 35° SW 13:12:09 10° WNW
Cosmos 389 Rocket 2.5 13:07:47 10° SSW 13:11:07 50° W 13:14:27 10° N
Cosmos 1023 Rocket 4.4 13:06:14 10° SSW 13:11:26 83° WNW 13:16:38 10° NNE
Cosmos 1980 3.9 13:08:48 10° SW 13:14:16 50° WNW 13:19:46 10° N
Cosmos 1190 Rocket 4.1 13:09:35 10° SSW 13:14:48 58° WNW 13:20:02 10° N
Milstar 3 4.1 13:11:42 10° SW 13:17:45 35° SSE 13:24:41 10° E
In-Cosmos 22 4.4 13:13:12 10° S 13:18:27 74° E 13:23:49 10° NNE
Cosmos 407 Rocket 3.8 13:15:38 10° SW 13:20:32 44° WNW 13:25:26 10° N
ALOS 2.4 13:16:49 10° NNE 13:21:31 84° ESE 13:26:09 10° S
ERBS 3.6 13:19:27 11° W 13:22:06 23° NW 13:24:53 10° NNE
Cosmos 1953 2.2 13:18:34 10° N 13:22:37 78° W 13:26:35 10° S
CZ-4B R/B 3.3 13:17:46 10° NNE 13:23:05 82° ESE 13:28:22 10° SSW
SJ-12 3.9 13:19:12 10° N 13:23:13 59° WNW 13:27:15 10° SSW
Cosmos 1437 Rocket 3.6 13:21:30 10° S 13:25:14 54° E 13:28:56 10° NNE
Cosmos 1758 3.9 13:23:31 10° NNW 13:27:09 34° W 13:30:46 10° SSW
Cosmos 2228 3.1 13:25:02 10° N 13:29:18 85° E 13:33:32 10° S
Cosmos 1674 3.9 13:26:26 10° SSE 13:30:00 46° E 13:33:34 10° NNE
SKYMED 2 3.7 13:28:22 10° S 13:32:37 56° W 13:36:54 10° NNW
SeaSat 1 2.5 13:27:55 10° NNE 13:32:51 85° WNW 13:37:47 10° SSW
RESURS DK-1 2.8 13:28:53 10° SSW 13:32:58 68° ESE 13:37:06 10° NNE
GP-B 3.2 13:29:22 10° S 13:33:43 57° W 13:38:05 10° NNW
